Weather in Lesnoy

Russia / Ryazan Oblast     54°12′56″N   40°28′20″E
temp.,
°C
wind,
m/s
gust,
m/s
humid.,
%
clouds,
%
prec.,
mm/h
press.,
hPa
HPBL,
m
2 march, tue
tue200:00−1wsw71393100 0.0 1016590
03:00+1wsw71392100 0.0 1014632
06:00+1w71395100 0.0 1010664
09:00+1w71499100 0.1 1009632
12:00+1wnw612100100 0.2 1008658
15:00+1wnw61198100 0.3 1008580
18:00−1wnw5119098 0.1 1007357
21:00−2nw5119095 0.2 1009366
3 march, wed
wed300:00−2nw6129294 0.1 1009401
03:00−3nw6129497 0.3 1011465
06:00−6nw5139179 0.1 1012503
09:00−6nw7139185 0.1 1014702
12:00−4nw7118394 0.0 1014876
15:00−2wnw6108560 0.0 1014916
18:00−2wnw5119498 0.1 1014547
21:00−4w4119390 0.1 1015259
4 march, thu
thu400:00−3w5119491 0.1 1013390
03:00−4wsw5109293 0.1 1012279
06:00−3sw71391100 0.0 1009443
09:00−1sw91688100 0.1 1007544
12:00+1wsw91885100 0.0 1003818
15:00+1wsw81584100 0.0 1002937
18:00+1wsw81586100 0.0 1000873
21:00+1w61298100 0.1 1000611
5 march, fri
fri500:000wnw5998100 0.3 1001446
03:00−3nnw3687100 0.6 1002162
06:00−5nnw2490100 0.0 1004105
09:00−5n2391100 0.0 1006161
12:00−3nne1184100 0.0 1007379
15:00−2ene2284100 0.0 1008426
18:00−4ene2392100 0.0 100752
21:00−4ne2497100 0.6 1007167
6 march, sat
sat600:00−5nne3696100 1.0 1006275
03:00−6n3696100 1.3 1007205
06:00−9nw3496100 0.0 100970
09:00−9nw469580 0.0 1010250
12:00−6wnw468977 0.0 1010529
15:00−5wnw468687 0.1 1011714
18:00−9wnw478873 0.0 1011126
21:00−10w348947 0.0 101372